SCP
0 0 0 0 0 0 0 0 0 0 0 0 0 0 0 0 0 0 0 0 0 0 0 0 0 0 0 0 0 0 0 0 0 0 0 0 0 0 0 0 0 0 0
0 0 0 0 0 0 0 0 0 0 0 0 0 0 0 0 0 0 0 0 0 0 0 0 0 0 0 0 0 0 0 0 0 0 0 0 0 0 0 0 0 0 0
0 0 0 0 0 0 0 0 0 0 0 0 0 0 0 0 0 0 0 0 0 0 0 0 0 0 0 0 0 0 0 0 0 0 0 0 0 0 0 0 0 0 0
0 0 0 0 0 0 0 0 0 0 0 0 0 0 0 0 0 0 0 0 0 0 0 0 0 0 0 0 0 0 0 0 0 0 0 0 0 0 0 0 0 0 0
0 0 0 0 0 0 0 0 0 0 0 0 0 0 0 0 0 0 0 0 0 0 0 0 0 0 0 0 0 0 0 0 0 0 0 0 0 0 0 0 0 0 0
0 0 0 0 0 0 0 0 0 0 0 0 0 0 0 0 0 0 0 0 0 0 0 0 0 0 0 0 0 0 0 0 0 0 0 0 0 0 0 0 0 0 0
0 0 0 0 0 0 0 0 0 0 0 0 0 0 0 0 0 0 0 0 0 0 0 0 0 0 0 0 0 0 0 0 0 0 0 0 0 0 0 0 0 0 0
0 0 0 0 0 0 0 0 0 0 0 0 0 0 0 0 0 0 0 0 0 0 0 0 0 0 0 0 0 0 0 0 0 0 0 0 0 0 0 0 0 0 0
0 0 0 0 0 0 0 0 0 0 0 0 0 0 0 0 0 0 0 0 0 0 0 0 0 0 0 0 0 0 0 0 0 0 0 0 0 0 0 0 0 0 0
0 0 0 0 0 0 0 0 0 0 0 0 0 0 0 0 0 0 0 0 0 0 0 0 0 0 0 0 0 0 0 0 0 0 0 0 0 0 0 0 0 0 0
0 0 0 0 0 0 0 0 0 0 0 0 0 0 0 0 0 0 0 0 0 0 0 0 0 0 0 0 0 0 0 0 0 0 0 0 0 0 0 0 0 0 0
0 0 0 0 0 0 0 0 0 0 0 0 0 0 0 0 0 0 0 0 0 0 0 0 0 0 0 0 0 0 0 0 0 0 0 0 0 0 0 0 0 0 0
0 0 0 0 0 0 0 0 0 0 0 0 0 0 0 0 0 0 0 0 0 0 0 0 0 0 0 0 0 0 0 0 0 0 0 0 0 0 0 0 0 0 0
0 0 0 0 0 0 0 0 0 0 0 0 0 0 0 0 0 0 0 0 0 0 0 0 0 0 0 0 0 0 0 0 0 0 0 0 0 0 0 0 0 0 0
0 0 0 0 0 0 0 0 0 0 0 0 0 0 0 0 0 0 0 0 0 0 0 0 0 0 0 0 0 0 0 0 0 0 0 0 0 0 0 0 0 0 0
0 0 0 0 0 0 0 0 0 0 0 0 0 0 0 0 0 0 0 0 0 0 0 0 0 0 0 0 -0 -0 -0 0 0 0 0 0 0 0 0 0 0 0 0
0 0 0 0 0 0 0 0 0 0 0 0 0 0 0 0 0 0 0 0 0 0 0 0 0 0 0 0 -0 -0 -0 0 0 0 -0 0 0 0 0 0 0 0 0
0 0 0 0 0 0 0 0 0 0 0 0 0 0 0 0 0 0 0 0 0 0 0 0 0 0 0 0 0 0 -0 0 0 0 0 0 0 0 0 0 0 0 0
0 0 0 0 0 0 0 0 0 0 0 0 0 0 0 0 0 0 0 0 0 0 0 0 0 0 0 0 0 0 0 0 0 0 0 0 0 0 0 0 0 0 0
0 0 0 0 0 0 0 0 0 0 0 0 0 0 0 0 0 0 0 0 0 0 0 0 0 0 0 0 0 0 0 0 0 0 0 0 0 0 -0 -0 0 0 0
0 0 0 0 0 0 0 0 0 0 0 0 0 0 0 0 0 0 0 0 0 0 0 0 0 0 0 0 0 0 0 0 0 0 0 0 0 -0 -0 -0 0 0 0
0 0 0 0 0 0 0 0 0 0 0 0 0 0 0 0 0 0 0 0 0 0 0 0 0 0 0 0 -0 -0 -0 0 0 -0 -0 0 0 0 -0 -0 -0 0 -0
0 0 0 0 0 0 0 0 0 0 0 0 0 0 0 0 0 0 0 0 0 0 0 0 0 0 0 0 -0 -0 -0 0 0 -0 0 0 0 0 0 0 0 0 0
0 0 0 0 0 0 0 0 0 0 0 0 0 0 0 0 0 0 0 0 -0 -0 0 0 0 0 0 0 0 0 0 0 0 0 0 0 0 0 0 0 0 0 0
0 0 0 0 0 0 0 0 0 0 0 0 0 0 0 0 0 0 0 0 -0 -0 0 0 0 0 0 0 0 0 0 0 0 0 0 0 0 0 0 0 0 0 0
0 0 0 0 0 0 0 0 0 0 0 0 -0 -0 0 0 0 0 0 0 0 0 0 0 0 0 0 0 0 0 0 0 0 0 0 0 0 0 0 0 0 0 0
Wind_Speed
9 9 9 8 8 7 7 6 5 4 2 1 1 2 2 2 2 2 3 3 3 2 2 2 1 1 0 1 1 0 1 1 1 1 0 1 0 1 1 1 2 2 3
10 9 8 8 7 6 6 6 5 5 4 2 1 1 1 2 2 3 4 4 3 3 2 2 1 1 1 1 1 0 0 1 1 1 1 1 1 1 0 0 1 1 1
11 10 9 8 7 6 6 5 5 5 4 4 3 3 3 2 3 4 3 4 4 3 3 3 2 2 1 1 1 1 1 1 1 1 2 2 2 0 1 1 1 1 1
9 8 9 8 7 6 5 5 5 5 5 5 4 4 3 2 2 2 2 4 5 4 4 3 3 3 2 2 2 1 1 1 1 1 1 1 2 2 1 1 1 2 2
10 9 8 7 7 6 5 4 5 5 5 5 5 5 4 3 2 3 4 4 4 5 5 4 4 3 2 2 2 2 1 1 2 1 1 1 1 2 2 2 1 2 2
10 9 8 7 6 6 5 5 5 5 5 6 6 5 5 5 4 4 3 3 3 3 5 4 4 3 3 3 3 2 2 1 1 1 1 1 2 2 3 3 2 2 2
9 9 8 7 6 6 5 4 5 5 5 6 6 5 5 5 5 3 3 3 3 3 4 4 4 4 4 4 3 3 2 2 1 1 1 1 1 2 2 3 3 2 2
9 8 7 7 6 6 5 4 5 5 5 5 5 5 5 4 3 4 3 3 2 2 4 4 4 5 4 4 4 3 2 2 2 1 1 0 0 1 2 3 4 3 2
10 8 7 7 6 5 4 4 5 5 4 4 4 5 5 4 4 3 3 3 3 3 5 5 5 5 5 5 4 3 4 2 2 2 2 1 1 1 1 2 3 5 4
10 8 7 7 6 5 4 4 4 4 3 4 3 4 4 4 3 3 4 4 4 4 5 5 5 5 5 5 5 4 4 4 3 2 3 3 2 2 2 2 2 2 4
10 8 7 6 5 5 4 4 4 4 4 4 4 4 4 4 4 4 4 4 4 5 5 5 5 6 6 5 5 5 5 5 5 5 4 4 3 2 2 3 3 3 4
9 9 8 6 5 4 4 3 3 3 3 3 4 4 4 4 4 4 4 4 5 5 5 5 6 6 6 6 6 6 6 6 6 5 5 5 4 4 3 3 4 3 3
9 8 7 6 5 4 4 3 3 3 3 4 4 4 4 4 4 4 4 4 5 5 5 6 6 6 6 6 6 5 6 6 5 5 5 5 5 5 4 4 4 4 4
9 8 6 5 5 4 4 4 3 3 3 4 4 4 4 4 4 4 4 4 5 5 5 5 6 6 6 7 6 6 6 6 6 6 6 5 5 5 5 5 5 5 6
9 8 7 5 5 4 4 4 3 3 3 4 4 3 3 4 4 5 5 5 5 6 5 6 6 6 6 6 6 6 7 6 7 7 7 7 8 9 6 5 5 6 5
9 8 7 7 6 5 4 4 3 3 3 3 3 3 4 4 4 4 5 5 5 5 6 6 6 7 6 8 10 7 6 6 7 7 6 7 8 10 11 10 8 7 7
9 9 8 7 6 5 4 4 3 3 3 3 3 3 4 4 4 4 5 5 4 5 5 5 6 6 7 10 10 10 7 7 7 6 6 7 7 8 7 10 11 10 8
8 7 7 6 5 4 4 4 3 3 4 3 3 3 3 4 4 4 4 3 3 4 3 4 5 5 7 10 10 10 8 7 7 7 6 6 7 7 7 7 8 7 6
8 7 7 6 6 5 5 5 4 4 4 3 3 3 3 4 3 3 3 3 3 3 3 3 5 6 7 10 9 8 5 6 7 7 7 6 7 8 9 8 8 7 6
7 7 7 6 6 5 5 5 4 4 3 3 3 3 3 3 3 2 2 2 3 3 3 4 4 5 5 9 9 7 4 5 4 5 6 9 8 8 8 6 6 6 3
8 8 7 6 5 5 5 5 4 3 2 3 3 3 3 3 2 2 2 2 3 3 4 4 4 5 5 7 9 8 4 3 3 4 4 4 8 8 8 6 4 2 2
8 8 7 5 4 5 6 5 4 3 3 4 3 3 2 2 3 2 2 2 3 3 3 3 4 4 4 6 7 9 7 4 3 2 2 3 6 7 6 4 3 4 4
7 6 7 6 4 4 5 5 3 4 4 4 3 3 3 3 3 3 2 2 2 2 1 2 2 2 3 5 9 9 9 8 3 2 4 5 6 5 4 5 5 4 3
6 6 7 6 5 4 5 4 4 4 4 3 2 2 3 3 3 3 2 2 2 2 2 1 1 1 2 3 4 4 4 6 5 4 5 6 6 4 3 3 3 2 1
5 6 7 6 5 5 4 4 4 4 4 3 2 2 2 2 2 2 2 1 0 1 2 2 2 2 0 2 2 1 2 2 2 3 3 4 4 4 3 3 2 2 2
6 6 6 6 5 5 4 3 3 4 4 3 2 2 1 1 1 2 2 3 1 2 1 2 3 2 2 2 1 3 3 3 2 3 2 2 2 2 2 1 2 1 1
Wind_Direction
113 104 94 88 81 67 62 43 39 26 34 49 59 69 64 56 52 47 43 42 36 32 41 19 7 16 13 291 299 252 196 224 185 124 357 336 16 182 213 205 184 199 199
119 108 98 87 76 65 61 45 41 38 31 30 30 67 79 70 67 46 32 25 21 20 41 40 17 7 1 0 354 344 220 232 177 155 153 270 320 351 68 93 175 199 184
123 112 101 90 82 68 56 57 39 36 31 27 44 56 49 42 43 40 27 14 19 23 28 37 29 12 14 345 327 332 243 238 235 184 165 176 210 251 39 34 45 47 82
116 111 106 97 88 79 67 57 45 40 32 36 55 67 72 63 40 37 31 17 21 23 26 28 25 16 12 352 326 348 290 248 245 254 233 200 165 164 162 63 47 50 56
125 115 108 102 93 82 71 58 52 47 38 40 46 58 56 52 46 44 38 25 15 18 22 24 22 14 4 352 333 333 321 278 238 222 214 209 192 170 160 165 122 59 38
118 113 106 99 87 75 62 52 53 47 41 45 45 53 57 55 55 45 34 20 12 9 12 19 16 9 2 356 345 342 332 314 289 260 216 193 186 179 163 156 145 110 53
115 115 108 102 93 82 70 59 59 52 42 46 42 42 49 54 53 42 38 27 16 9 1 9 8 3 357 358 359 4 356 339 324 295 251 224 215 171 151 144 141 119 81
117 116 114 108 101 94 84 68 62 53 48 49 44 40 43 47 44 40 41 32 17 2 358 9 11 7 5 4 7 12 358 1 3 350 316 232 263 146 145 146 146 136 104
123 119 113 105 101 97 84 75 71 59 53 53 52 43 40 44 42 36 32 26 12 11 16 17 17 12 11 11 15 19 4 11 27 19 31 49 14 106 114 131 150 150 150
124 118 111 107 101 98 93 83 80 73 56 48 46 53 40 38 38 37 33 27 16 18 22 20 20 19 17 17 23 19 12 27 25 28 40 38 28 56 74 108 120 122 132
127 122 117 111 106 101 97 89 84 74 59 52 48 45 33 28 31 34 29 28 24 24 27 23 26 29 26 21 26 25 27 33 32 30 44 44 45 60 68 80 87 91 103
127 127 123 117 111 106 102 97 90 82 72 62 55 47 34 33 34 33 25 27 28 25 29 31 33 34 30 25 31 31 29 35 36 33 41 39 53 62 68 84 93 96 96
130 128 126 124 122 115 107 101 92 88 78 71 61 49 40 37 34 33 29 31 32 32 36 39 38 33 27 27 30 36 34 35 36 36 43 40 56 63 68 83 91 94 94
134 132 129 125 127 121 115 109 94 90 87 79 72 58 44 38 35 37 38 39 40 43 41 40 39 35 30 28 30 38 39 37 36 38 42 42 52 66 75 83 88 94 95
141 140 139 136 132 123 113 105 97 94 93 84 73 58 49 46 44 45 42 45 47 48 43 43 38 32 32 26 33 39 46 44 42 40 41 47 57 64 71 86 95 102 104
148 145 143 138 136 130 123 110 102 101 95 88 75 65 66 58 52 50 49 51 49 45 46 44 43 38 31 28 41 49 48 45 47 45 41 47 49 57 66 76 83 101 114
150 148 144 140 139 134 127 120 116 103 92 86 79 78 77 69 60 64 55 51 49 51 49 41 44 39 24 33 42 49 56 52 49 47 44 49 46 54 67 69 67 67 80
146 144 138 134 132 126 121 116 110 101 95 87 84 85 79 73 66 63 56 51 52 54 50 43 41 41 27 34 47 56 57 55 50 48 51 56 45 50 68 74 65 58 58
144 142 140 136 132 132 128 117 106 99 94 94 97 98 96 87 74 65 59 56 64 54 48 47 45 45 25 31 49 63 60 56 47 44 46 54 57 56 71 76 71 60 46
132 133 132 124 128 132 123 115 110 104 107 113 108 103 98 97 90 82 72 61 70 65 56 46 39 46 36 32 49 63 67 59 45 35 35 45 58 59 68 78 80 70 43
133 132 128 129 138 133 119 118 120 122 129 112 100 89 91 100 98 78 68 78 73 65 54 45 29 31 32 34 47 60 68 71 55 37 21 21 43 54 60 71 81 81 73
129 130 129 130 132 127 121 121 128 132 109 97 91 86 86 83 81 70 53 60 77 71 52 43 27 13 13 27 38 54 61 73 71 34 357 358 26 39 40 47 48 61 69
134 132 132 129 131 134 130 133 149 132 111 99 95 88 77 64 66 73 67 58 67 77 61 55 43 4 0 8 25 38 46 53 57 7 356 5 17 24 25 23 31 49 63
138 136 134 135 141 140 136 147 150 129 118 118 116 104 88 66 51 55 65 84 83 93 93 99 89 21 7 2 4 12 19 24 23 2 352 4 17 20 4 2 12 32 82
139 139 143 146 151 149 148 155 149 133 126 128 127 117 110 109 79 61 54 94 123 180 155 161 156 141 60 297 326 7 4 356 346 352 6 13 11 8 2 0 357 8 28
141 140 144 147 152 151 155 163 156 143 138 139 142 143 148 143 129 108 39 22 37 30 96 160 166 191 209 234 292 341 352 353 8 47 22 359 353 347 341 349 349 350 349